Buffalo, NY

7:58 AM EST on December 15, 2019 (GMT -0500)
Buffalo Niagara International

Weather History for KBUF - July, 2019

Change the Weather History Date:

Tuesday, July 30, 2019

  Actual Average Record
Temperature  
Mean Temperature 75 °F 71 °F  
Max Temperature 79 °F 80 °F 93 °F (1955)
Min Temperature 70 °F 62 °F 47 °F (1968)
Degree Days  
Heating Degree Days 0 0  
Month to date heating degree days 0 2  
Since 1 June heating degree days 62 66  
Since 1 July heating degree days 0 2  
Cooling Degree Days 10 6  
Month to date cooling degree days 275 195  
Year to date cooling degree days 358 324  
Since 1 June cooling degree days 350 298  
Growing Degree Days 24 (Base 50)    
Moisture  
Dew Point 67 °F    
Average Humidity 81    
Maximum Humidity 90    
Minimum Humidity 71    
Precipitation  
Precipitation 0.50 in 0.11 in 0.92 in (1983)
Month to date precipitation 1.83 3.11  
Year to date precipitation 24.75 21.78  
Snow  
Snow 0.00 in 0.00 in 0.00 in ()
Month to date snowfall 0.0 0.0  
Since 1 June snowfall 0.0 0.0  
Since 1 July snowfall 0.0 0.0  
Snow Depth 0.00 in    
Sea Level Pressure  
Sea Level Pressure 29.94 in    
Wind  
Wind Speed 10 mph (SW)    
Max Wind Speed 20 mph    
Max Gust Speed 26 mph    
Visibility 9 miles    
Events Fog , Rain , Thunderstorm    
T = Trace of Precipitation, MM = Missing Value Source: NWS Daily Summary

Daily Weather History Graph

Daily Weather History Graph

Search for Another Location

Airport or City:

Astronomy

Jul. 30, 2019 Rise Set
Actual Time 6:03 AM EDT 8:38 PM EDT
Civil Twilight 5:31 AM EDT 9:10 PM EDT
Nautical Twilight 4:50 AM EDT 9:51 PM EDT
Astronomical Twilight 4:04 AM EDT 10:36 PM EDT
Moon 4:08 AM EDT (7/30) 7:43 PM EDT (7/30)
Length of Visible Light 15h 39m
Length of Day
14h 34m
Waning Crescent, 3% of the Moon is Illuminated
Jul 30
Waning Crescent
Jul 31
New
Aug 7
First Quarter
Aug 15
Full
Aug 23
Last Quarter

Hourly Weather History & Observations

Time (EDT) Temp. Dew Point Humidity Pressure Visibility Wind Dir Wind Speed Gust Speed Precip Events Conditions
12:54 AM 72.0 °F 68.0 °F 87% 29.92 in 10.0 mi South 8.1 mph - 0.01 in   Overcast
1:54 AM 71.1 °F 68.0 °F 90% 29.91 in 10.0 mi South 6.9 mph - N/A   Scattered Clouds
2:54 AM 71.1 °F 68.0 °F 90% 29.90 in 10.0 mi SW 4.6 mph - N/A   Mostly Cloudy
3:54 AM 70.0 °F 66.9 °F 90% 29.90 in 10.0 mi South 4.6 mph - N/A   Scattered Clouds
4:54 AM 71.1 °F 66.9 °F 87% 29.90 in 10.0 mi SSW 4.6 mph - N/A   Mostly Cloudy
5:54 AM 71.1 °F 68.0 °F 90% 29.90 in 8.0 mi South 3.5 mph - 0.00 in Rain Light Rain
6:54 AM 71.1 °F 68.0 °F 90% 29.92 in 6.0 mi South 6.9 mph - 0.10 in Rain Light Rain
7:20 AM 71.1 °F 68.0 °F 90% 29.92 in 6.0 mi South 6.9 mph - 0.00 in   Overcast
7:54 AM 71.1 °F 68.0 °F 90% 29.92 in 9.0 mi South 9.2 mph - 0.00 in   Overcast
8:54 AM 72.0 °F 66.9 °F 84% 29.92 in 10.0 mi SSW 15.0 mph - 0.00 in Rain Light Rain
9:25 AM 73.4 °F 66.2 °F 78% 29.93 in 10.0 mi SSW 15.0 mph - N/A Rain Light Rain
9:54 AM 73.9 °F 66.9 °F 79% 29.93 in 10.0 mi SW 13.8 mph - 0.00 in   Mostly Cloudy
10:54 AM 73.9 °F 68.0 °F 82% 29.94 in 10.0 mi SW 13.8 mph - 0.00 in   Overcast
11:54 AM 73.0 °F 68.0 °F 84% 29.95 in 10.0 mi SW 15.0 mph 23.0 mph 0.01 in Rain Light Rain
12:47 PM 71.1 °F 68.0 °F 90% 29.96 in 0.5 mi WSW 12.7 mph 25.3 mph 0.15 in Fog , Rain Heavy Rain
12:54 PM 72.0 °F 68.0 °F 87% 29.95 in 5.0 mi WSW 13.8 mph 20.7 mph 0.38 in Rain Light Rain
1:26 PM 73.9 °F 69.1 °F 85% 29.96 in 10.0 mi WSW 13.8 mph 20.7 mph 0.01 in   Mostly Cloudy
1:54 PM 73.9 °F 69.1 °F 85% 29.94 in 10.0 mi WSW 10.4 mph 21.9 mph 0.01 in   Mostly Cloudy
2:54 PM 79.0 °F 68.0 °F 69% 29.93 in 10.0 mi SW 15.0 mph 19.6 mph N/A   Mostly Cloudy
3:54 PM 75.9 °F 68.0 °F 76% 29.93 in 10.0 mi WSW 13.8 mph - N/A   Mostly Cloudy
4:54 PM 75.9 °F 68.0 °F 76% 29.93 in 10.0 mi SW 15.0 mph - N/A   Mostly Cloudy
5:54 PM 75.0 °F 68.0 °F 79% 29.93 in 10.0 mi SW 13.8 mph - N/A   Mostly Cloudy
6:54 PM 75.9 °F 66.9 °F 74% 29.93 in 10.0 mi SW 17.3 mph - N/A   Mostly Cloudy
7:54 PM 75.0 °F 66.9 °F 76% 29.95 in 10.0 mi SW 12.7 mph - N/A   Mostly Cloudy
8:54 PM 73.9 °F 66.9 °F 79% 29.97 in 10.0 mi WSW 11.5 mph - N/A   Mostly Cloudy
9:54 PM 73.0 °F 66.9 °F 81% 29.99 in 10.0 mi WSW 6.9 mph - N/A Thunderstorm Mostly Cloudy
10:01 PM 73.0 °F 66.9 °F 81% 30.00 in 10.0 mi WSW 9.2 mph - N/A Thunderstorm Thunderstorm
10:42 PM 71.1 °F 64.9 °F 81% 30.01 in 10.0 mi North 3.5 mph - 0.00 in   Mostly Cloudy
10:54 PM 71.1 °F 64.0 °F 78% 30.00 in 10.0 mi Calm Calm - 0.00 in   Mostly Cloudy
11:54 PM 71.1 °F 64.9 °F 81% 30.01 in 10.0 mi West 5.8 mph - 0.00 in Rain Light Rain